Regional Weather Roundup
Issued by NWS Cleveland, OH

Home | Current Version | Previous Version | Graphics & Text | Print | Product List | Glossary On
Versions: 1 2 3 4 5 6 7 8 9 10 11 12 13 14 15 16 17 18 19 20 21 22 23 24 25 26 27 28 29 30 31 32 33 34 35 36 37 38 39 40 41 42 43 44 45 46 47 48 49 50
000
ASUS41 KCLE 240310
RWRCLE
OHIO REGIONAL WEATHER ROUNDUP
NATIONAL WEATHER SERVICE CLEVELAND, OH
1100 PM EDT MON APR 23 2018

NOTE: "FAIR" INDICATES FEW OR NO CLOUDS BELOW 12,000 FEET WITH NO
SIGNIFICANT WEATHER AND/OR OBSTRUCTIONS TO VISIBILITY.

OHZ001>008-015>018-024>027-034-035-043-044-240400-
   NORTHWEST OHIO

CITY           SKY/WX    TMP DP  RH WIND       PRES   REMARKS
DEFIANCE       LGT RAIN  54  46  74 E5        30.16F
FINDLAY        CLOUDY    57  43  59 SE16G25   30.14F
TOLEDO EXPRESS LGT RAIN  57  47  69 VRB3      30.18R
TOLEDO EXEC    CLOUDY    56  45  66 SE5       30.18S
LIMA           CLOUDY    53  46  77 E14G23    30.13F
$$

OHZ009>014-019>023-028>033-038-089-240400-
   NORTHEAST OHIO

CITY           SKY/WX    TMP DP  RH WIND       PRES   REMARKS
CLE-HOPKINS    CLOUDY    55  47  74 S3        30.22R
CLE-LAKEFRONT  CLOUDY    52  40  63 CALM      30.19S
CUY CO. ARPT   CLOUDY    55  45  67 SW6       30.21S
LORAIN-ELYRIA  MOCLDY    53  43  68 S5        30.19S
ASHTABULA      FAIR      63  37  38 S8        30.20S
AKRON-CANTON   CLOUDY    56  40  55 S5        30.20F
WOOSTER        CLOUDY    53  44  71 S5        30.19F
MANSFIELD      CLOUDY    55  43  63 SE14      30.18S
YOUNGSTOWN     CLOUDY    63  37  38 SE9       30.19F
$$

OHZ042-051>053-060>062-070>072-077>081-240400-
  SOUTHWEST OHIO

CITY           SKY/WX    TMP DP  RH WIND       PRES   REMARKS
CINC-COVINGTON CLOUDY    53  49  86 E10       30.04F
CINC-LUNKEN    LGT RAIN  54  50  86 E8        30.06F
HAMILTON       CLOUDY    53  49  86 E8        30.08F
DAYTON         CLOUDY    52  49  89 E15       30.10F
WRIGHT-PAT AFB LGT RAIN  52  48  84 E15       30.09F
DAYTON GENERAL LGT RAIN  53  48  83 E12G21    30.07F
WILMINGTON     LGT RAIN  50  49  96 E13G22    30.08F
$$

OHZ036-037-039>041-045>050-054>059-063>069-073>076-082>088-240400-
  CENTRAL AND SOUTHEAST OHIO

CITY           SKY/WX    TMP DP  RH WIND       PRES   REMARKS
COLUMBUS       LGT RAIN  54  47  77 E13       30.14F
OSU AIRPORT    LGT RAIN  53  47  79 E12       30.14F
BOLTON FIELD   CLOUDY    51  48  88 E9        30.15S
RICKENBACK AFB CLOUDY    52  48  86 E7        30.14F
NEWARK         CLOUDY    55  45  68 E8        30.15F
MARION         CLOUDY    54  44  69 SE16G24   30.16F
LANCASTER      CLOUDY    53  47  79 SE10      30.15F
ZANESVILLE     CLOUDY    57  43  59 E9        30.17F
NEW PHILLY     CLOUDY    57  41  55 SE3       30.20
$$




USA.gov is the U.S. government's official web portal to all federal, state and local government web resources and services.